Zurück zum Katalog

STARLINK-31965

AktivKommunikationVLEO
NORAD 59888·PAYLOAD·🇺🇸 United States

Gestartet May 28, 2024 von Cape Canaveral Space Force Station

Loading…

Nächste Überflüge (nächste 24 Stunden)

TLE

AktuellSource: CelesTrak SupGP

Epoche: Sep 14, 2026, 22:38 UTC

1 59888C 24100D   26257.94354167 -.00022966  00000+0 -83198-3 0  2571
2 59888  43.0012 136.7821 0001283 267.7439 272.2632 15.27584345    19

Verfolge STARLINK-31965 in Echtzeit mit AllMySat

Download on the App Store